Broomfield, CO

1:39 PM MDT on July 24, 2017 (GMT -0600)
Jeffco

Weather History for KBJC - March, 2013

Change the Weather History Date:

Tuesday, March 19, 2013

  Actual Average Record
Temperature  
Mean Temperature 42 °F -  
Max Temperature 55 °F 52 °F 77 °F (2004)
Min Temperature 28 °F 32 °F 19 °F (1998)
Degree Days  
Heating Degree Days 24    
Moisture  
Dew Point -2 °F    
Average Humidity 20    
Maximum Humidity 64    
Minimum Humidity 4    
Precipitation  
Precipitation 0.00 in - - ()
Sea Level Pressure  
Sea Level Pressure 30.04 in    
Wind  
Wind Speed 20 mph (WNW)    
Max Wind Speed 34 mph    
Max Gust Speed 52 mph    
Visibility 10 miles    
Events      
Averages and records for this station are not official NWS values.
T = Trace of Precipitation, MM = Missing Value Source: NWS Daily Summary

Daily Weather History Graph

Daily Weather History Graph

Search for Another Location

Airport or City:

Trip Planner

Search our weather history database for the weather conditions in past years. The results will help you decide how hot, cold, wet, or windy it might be!

Date:

Astronomy

Mar. 19, 2013 Rise Set
Actual Time 7:05 AM MDT 7:11 PM MDT
Civil Twilight 6:38 AM MDT 7:38 PM MDT
Nautical Twilight 6:06 AM MDT 8:10 PM MDT
Astronomical Twilight 5:34 AM MDT 8:42 PM MDT
Moon 11:57 AM MDT (3/19) 2:00 AM MDT (3/19)
Length of Visible Light 13h 00m
Length of Day
12h 06m
Waxing Crescent, 50% of the Moon is Illuminated
Mar 19
Waxing Crescent
Mar 27
Full
Apr 2
Last Quarter
Apr 10
New
Apr 18
First Quarter

Hourly Weather History & Observations

Time (MDT) Temp. Windchill Dew Point Humidity Pressure Visibility Wind Dir Wind Speed Gust Speed Precip Events Conditions
12:15 AM 41.0 °F 31.9 °F 8.6 °F 26% 29.92 in 10.0 mi West 19.6 mph 24.2 mph N/A   Clear
12:35 AM 42.8 °F 33.3 °F 6.8 °F 23% 29.92 in 10.0 mi West 24.2 mph 29.9 mph N/A   Clear
12:54 AM 41.0 °F 30.5 °F 5.0 °F 23% 29.92 in 10.0 mi West 26.5 mph 32.2 mph N/A   Clear
1:15 AM 42.8 °F 32.9 °F 5.0 °F 21% 29.92 in 10.0 mi West 26.5 mph 35.7 mph N/A   Clear
1:35 AM 41.0 °F 30.7 °F 5.0 °F 23% 29.93 in 10.0 mi West 25.3 mph 34.5 mph N/A   Clear
1:55 AM 41.0 °F 31.9 °F 5.0 °F 23% 29.93 in 10.0 mi West 19.6 mph 31.1 mph N/A   Clear
2:15 AM 41.0 °F 30.9 °F 5.0 °F 23% 29.93 in 10.0 mi West 24.2 mph 31.1 mph N/A   Clear
2:35 AM 41.0 °F 31.9 °F 5.0 °F 23% 29.93 in 10.0 mi WNW 19.6 mph 34.5 mph N/A   Clear
2:55 AM 41.0 °F 31.9 °F 5.0 °F 23% 29.93 in 10.0 mi West 19.6 mph - N/A   Clear
3:15 AM 41.0 °F 31.9 °F 3.2 °F 21% 29.93 in 10.0 mi West 19.6 mph 28.8 mph N/A   Clear
3:35 AM 41.0 °F 30.2 °F 1.4 °F 19% 29.93 in 10.0 mi WNW 27.6 mph 40.3 mph N/A   Clear
3:55 AM 42.8 °F 34.8 °F -0.4 °F 16% 29.93 in 10.0 mi WNW 17.3 mph 38.0 mph N/A   Clear
4:15 AM 41.0 °F 29.8 °F -2.2 °F 16% 29.92 in 10.0 mi WNW 29.9 mph 40.3 mph N/A   Clear
4:35 AM 42.8 °F 31.8 °F -5.8 °F 13% 29.92 in 10.0 mi WNW 33.4 mph 49.5 mph N/A   Clear
4:55 AM 42.8 °F 31.9 °F -5.8 °F 13% 29.94 in 10.0 mi West 32.2 mph 49.5 mph N/A   Clear
5:15 AM 41.0 °F 30.0 °F -4.0 °F 15% 29.94 in 10.0 mi WNW 28.8 mph 39.1 mph N/A   Clear
5:35 AM 41.0 °F 29.8 °F -5.8 °F 14% 29.96 in 10.0 mi West 29.9 mph 46.0 mph N/A   Clear
5:48 AM 41.0 °F 29.1 °F -9.4 °F 12% 29.97 in 30.0 mi West 34.5 mph 51.8 mph N/A   Clear
5:55 AM 41.0 °F 30.0 °F -7.6 °F 13% 29.97 in 10.0 mi WNW 28.8 mph 51.8 mph N/A   Clear
6:48 AM 39.2 °F 27.6 °F -9.4 °F 12% 29.99 in 60.0 mi WNW 28.8 mph 46.0 mph N/A   Mostly Cloudy
7:47 AM 39.2 °F 29.3 °F -11.2 °F 11% 30.04 in 70.0 mi NW 20.7 mph 36.8 mph N/A   Mostly Cloudy
8:47 AM 41.0 °F 33.1 °F -16.6 °F 8% 30.07 in 70.0 mi NW 15.0 mph 23.0 mph N/A   Mostly Cloudy
9:26 AM 41.0 °F 32.5 °F -2.2 °F 16% 30.09 in 70.0 mi NE 17.3 mph - N/A   Mostly Cloudy
9:49 AM 37.4 °F 29.3 °F 3.2 °F 24% 30.10 in 70.0 mi NE 12.7 mph - N/A   Mostly Cloudy
10:47 AM 39.2 °F 32.0 °F 6.8 °F 26% 30.10 in 70.0 mi ENE 11.5 mph 16.1 mph N/A   Mostly Cloudy
11:48 AM 41.0 °F 35.8 °F 5.0 °F 23% 30.11 in 70.0 mi East 8.1 mph - N/A   Mostly Cloudy
12:53 PM 44.6 °F 39.2 °F 3.2 °F 18% 30.10 in 70.0 mi ESE 10.4 mph - N/A   Mostly Cloudy
1:53 PM 50.0 °F - -2.2 °F 12% 30.08 in 70.0 mi SSE 6.9 mph - N/A   Mostly Cloudy
2:10 PM 50.0 °F - -9.4 °F 8% 30.08 in 70.0 mi Variable 3.5 mph - N/A   Mostly Cloudy
2:55 PM 51.8 °F - -16.6 °F 5% 30.07 in 70.0 mi SSW 6.9 mph - N/A   Scattered Clouds
3:50 PM 53.6 °F - -20.2 °F 4% 30.07 in 70.0 mi West 10.4 mph - N/A   Scattered Clouds
4:53 PM 55.4 °F - -32.8 °F 4% 30.09 in 70.0 mi WNW 17.3 mph 28.8 mph N/A   Mostly Cloudy
5:47 PM 51.8 °F - -23.8 °F 4% 30.10 in 70.0 mi ENE 4.6 mph 18.4 mph N/A   Mostly Cloudy
6:59 PM 46.4 °F - -13.0 °F 8% 30.15 in 40.0 mi Calm Calm - N/A   Scattered Clouds
7:55 PM 46.4 °F 42.9 °F -25.6 °F 4% 30.18 in 40.0 mi WNW 6.9 mph - N/A   Scattered Clouds
8:50 PM 39.2 °F 30.2 °F 3.2 °F 22% 30.23 in 30.0 mi ENE 17.3 mph 25.3 mph N/A   Mostly Cloudy
9:47 PM 32.0 °F 23.6 °F 12.2 °F 44% 30.32 in 30.0 mi North 10.4 mph - N/A   Scattered Clouds
11:15 PM 30.2 °F - 15.8 °F 55% 30.34 in 10.0 mi Calm Calm - N/A   Clear
11:35 PM 28.4 °F 22.2 °F 17.6 °F 64% 30.33 in 10.0 mi North 5.8 mph - N/A   Clear
11:55 PM 28.4 °F 23.3 °F 17.6 °F 64% 30.33 in 10.0 mi North 4.6 mph - N/A   Clear